Time,TemperatureF,DewpointF,PressureIn,WindDirection,WindDirectionDegrees,WindSpeedMPH,WindSpeedGustMPH,Humidity,HourlyPrecipIn,Conditions,Clouds,dailyrainin,SoftwareType,DateUTC
2013-05-16 00:00:00,70.5,61.4,30.12,SE,135,1.0,4.0,73,0.00,,,0.00,VWS V14.01,2013-05-16 04:00:00,
2013-05-16 00:05:00,70.5,62.0,30.12,ESE,113,2.0,5.0,74,0.00,,,0.00,weatherlink.com 1.10,2013-05-16 04:05:00,
2013-05-16 00:15:00,70.5,61.8,30.12,ESE,112,1.0,5.0,74,0.00,,,0.00,VWS V14.01,2013-05-16 04:15:00,
2013-05-16 00:20:00,70.4,62.0,30.11,SE,125,0.0,4.0,75,0.00,,,0.00,weatherlink.com 1.10,2013-05-16 04:20:00,
2013-05-16 00:30:00,70.3,62.0,30.11,ESE,112,1.0,6.0,75,0.00,,,0.00,VWS V14.01,2013-05-16 04:30:00,
2013-05-16 00:35:00,70.2,62.0,30.11,SSE,155,3.0,6.0,76,0.00,,,0.00,weatherlink.com 1.10,2013-05-16 04:35:00,
2013-05-16 00:45:00,70.1,62.2,30.10,SE,135,1.0,6.0,76,0.00,,,0.00,VWS V14.01,2013-05-16 04:45:00,
2013-05-16 00:50:00,70.1,63.0,30.10,ESE,115,1.0,4.0,77,0.00,,,0.00,weatherlink.com 1.10,2013-05-16 04:50:00,
2013-05-16 01:00:00,69.9,62.4,30.10,ESE,112,1.0,4.0,77,0.00,,,0.00,VWS V14.01,2013-05-16 05:00:00,
2013-05-16 01:05:00,69.8,63.0,30.10,ESE,121,0.0,7.0,78,0.00,,,0.00,weatherlink.com 1.10,2013-05-16 05:05:00,
2013-05-16 01:15:00,69.7,62.5,30.10,SE,135,2.0,7.0,78,0.00,,,0.00,VWS V14.01,2013-05-16 05:15:00,
2013-05-16 01:21:00,69.7,63.0,30.09,SSE,148,1.0,6.0,78,0.00,,,0.00,weatherlink.com 1.10,2013-05-16 05:21:00,
2013-05-16 01:30:00,69.8,62.6,30.09,SE,135,2.0,8.0,78,0.00,,,0.00,VWS V14.01,2013-05-16 05:30:00,
2013-05-16 01:36:00,69.8,63.0,30.09,ESE,122,0.0,5.0,79,0.00,,,0.00,weatherlink.com 1.10,2013-05-16 05:36:00,
2013-05-16 01:45:00,69.8,63.0,30.09,ESE,112,2.0,6.0,79,0.00,,,0.00,VWS V14.01,2013-05-16 05:45:00,
2013-05-16 01:51:00,69.8,63.0,30.09,SE,129,1.0,6.0,80,0.00,,,0.00,weatherlink.com 1.10,2013-05-16 05:51:00,
2013-05-16 02:00:00,69.9,63.8,30.08,SE,135,2.0,7.0,81,0.00,,,0.00,VWS V14.01,2013-05-16 06:00:00,
2013-05-16 02:06:00,69.9,64.0,30.08,ENE,78,0.0,6.0,80,0.00,,,0.00,weatherlink.com 1.10,2013-05-16 06:06:00,
2013-05-16 02:15:00,69.7,63.6,30.08,ESE,112,1.0,5.0,81,0.00,,,0.00,VWS V14.01,2013-05-16 06:15:00,
2013-05-16 02:21:00,69.6,64.0,30.08,ESE,116,4.0,6.0,81,0.00,,,0.00,weatherlink.com 1.10,2013-05-16 06:21:00,
2013-05-16 02:30:00,69.4,63.3,30.08,ESE,112,1.0,6.0,81,0.00,,,0.00,VWS V14.01,2013-05-16 06:30:00,
2013-05-16 02:36:00,69.4,63.0,30.08,SE,125,1.0,5.0,81,0.00,,,0.00,weatherlink.com 1.10,2013-05-16 06:36:00,
2013-05-16 02:45:00,69.2,63.5,30.08,SE,135,2.0,5.0,82,0.00,,,0.00,VWS V14.01,2013-05-16 06:45:00,
2013-05-16 02:51:00,69.1,63.0,30.08,SE,128,2.0,5.0,82,0.00,,,0.00,weatherlink.com 1.10,2013-05-16 06:51:00,
2013-05-16 03:00:00,69.0,63.6,30.08,ESE,112,1.0,5.0,83,0.00,,,0.00,VWS V14.01,2013-05-16 07:00:00,
2013-05-16 03:06:00,68.9,64.0,30.08,ESE,111,0.0,4.0,83,0.00,,,0.00,weatherlink.com 1.10,2013-05-16 07:06:00,
2013-05-16 03:15:00,68.9,63.5,30.07,ESE,112,1.0,5.0,83,0.00,,,0.00,VWS V14.01,2013-05-16 07:15:00,
2013-05-16 03:21:00,68.8,64.0,30.07,SE,132,0.0,5.0,84,0.00,,,0.00,weatherlink.com 1.10,2013-05-16 07:21:00,
2013-05-16 03:30:00,68.5,63.5,30.07,SE,135,0.0,3.0,84,0.00,,,0.00,VWS V14.01,2013-05-16 07:30:00,
2013-05-16 03:36:00,68.3,64.0,30.07,SE,126,2.0,3.0,85,0.00,,,0.00,weatherlink.com 1.10,2013-05-16 07:36:00,
2013-05-16 03:45:00,68.2,63.5,30.06,SE,135,1.0,4.0,85,0.00,,,0.00,VWS V14.01,2013-05-16 07:45:00,
2013-05-16 03:51:00,68.1,64.0,30.06,East,101,1.0,4.0,85,0.00,,,0.00,weatherlink.com 1.10,2013-05-16 07:51:00,
2013-05-16 04:00:00,68.0,63.3,30.06,East,90,1.0,3.0,85,0.00,,,0.00,VWS V14.01,2013-05-16 08:00:00,
2013-05-16 04:06:00,67.9,64.0,30.06,SE,128,0.0,4.0,86,0.00,,,0.00,weatherlink.com 1.10,2013-05-16 08:06:00,
2013-05-16 04:15:00,67.7,63.4,30.06,SE,135,1.0,5.0,86,0.00,,,0.00,VWS V14.01,2013-05-16 08:15:00,
2013-05-16 04:21:00,67.7,63.0,30.06,ESE,115,0.0,5.0,86,0.00,,,0.00,weatherlink.com 1.10,2013-05-16 08:21:00,
2013-05-16 04:30:00,67.4,63.1,30.06,ESE,112,0.0,3.0,86,0.00,,,0.00,VWS V14.01,2013-05-16 08:30:00,
2013-05-16 04:36:00,67.2,63.0,30.07,ESE,115,0.0,1.0,87,0.00,,,0.00,weatherlink.com 1.10,2013-05-16 08:36:00,
2013-05-16 04:45:00,66.9,62.9,30.07,ESE,112,0.0,2.0,87,0.00,,,0.00,VWS V14.01,2013-05-16 08:45:00,
2013-05-16 04:51:00,66.8,63.0,30.07,ESE,115,0.0,2.0,88,0.00,,,0.00,weatherlink.com 1.10,2013-05-16 08:51:00,
2013-05-16 05:00:00,66.4,62.7,30.07,ESE,112,0.0,0.0,88,0.00,,,0.00,VWS V14.01,2013-05-16 09:00:00,
2013-05-16 05:06:00,66.4,63.0,30.07,SSE,166,0.0,2.0,89,0.00,,,0.00,weatherlink.com 1.10,2013-05-16 09:06:00,
2013-05-16 05:15:00,66.3,63.0,30.06,SSE,158,0.0,3.0,89,0.00,,,0.00,VWS V14.01,2013-05-16 09:15:00,
2013-05-16 05:21:00,66.3,63.0,30.06,SE,139,0.0,3.0,89,0.00,,,0.00,weatherlink.com 1.10,2013-05-16 09:21:00,
2013-05-16 05:30:00,66.2,62.9,30.07,SE,135,0.0,2.0,89,0.00,,,0.00,VWS V14.01,2013-05-16 09:30:00,
2013-05-16 05:36:00,66.1,63.0,30.07,SE,139,0.0,2.0,90,0.00,,,0.00,weatherlink.com 1.10,2013-05-16 09:36:00,
2013-05-16 05:45:00,66.1,63.1,30.06,ESE,112,0.0,3.0,90,0.00,,,0.00,VWS V14.01,2013-05-16 09:45:00,
2013-05-16 05:51:00,66.0,63.0,30.07,ESE,113,0.0,3.0,90,0.00,,,0.00,weatherlink.com 1.10,2013-05-16 09:51:00,
2013-05-16 06:00:00,65.9,62.6,30.07,ESE,112,0.0,1.0,89,0.00,,,0.00,VWS V14.01,2013-05-16 10:00:00,
2013-05-16 06:06:00,65.8,63.0,30.07,ESE,113,0.0,1.0,90,0.00,,,0.00,weatherlink.com 1.10,2013-05-16 10:06:00,
2013-05-16 06:15:00,65.6,62.6,30.07,ESE,112,0.0,3.0,90,0.00,,,0.00,VWS V14.01,2013-05-16 10:15:00,
2013-05-16 06:21:00,65.6,63.0,30.07,ESE,118,0.0,3.0,90,0.00,,,0.00,weatherlink.com 1.10,2013-05-16 10:21:00,
2013-05-16 06:30:00,65.5,62.5,30.07,ESE,112,0.0,3.0,90,0.00,,,0.00,VWS V14.01,2013-05-16 10:30:00,
2013-05-16 06:36:00,65.4,63.0,30.07,ESE,118,0.0,1.0,90,0.00,,,0.00,weatherlink.com 1.10,2013-05-16 10:36:00,
2013-05-16 06:45:00,65.3,62.6,30.08,ESE,112,0.0,1.0,91,0.00,,,0.00,VWS V14.01,2013-05-16 10:45:00,
2013-05-16 06:51:00,65.2,63.0,30.08,ESE,118,0.0,1.0,91,0.00,,,0.00,weatherlink.com 1.10,2013-05-16 10:51:00,
2013-05-16 07:00:00,65.1,62.4,30.09,ESE,112,0.0,1.0,91,0.00,,,0.00,VWS V14.01,2013-05-16 11:00:00,
2013-05-16 07:06:00,65.1,63.0,30.09,ESE,118,0.0,0.0,91,0.00,,,0.00,weatherlink.com 1.10,2013-05-16 11:06:00,
2013-05-16 07:15:00,65.3,62.9,30.09,ESE,112,0.0,0.0,92,0.00,,,0.00,VWS V14.01,2013-05-16 11:15:00,
2013-05-16 07:21:00,65.6,63.0,30.10,SE,128,0.0,0.0,91,0.00,,,0.00,weatherlink.com 1.10,2013-05-16 11:21:00,
2013-05-16 07:30:00,66.1,63.4,30.10,ESE,112,0.0,0.0,91,0.00,,,0.00,VWS V14.01,2013-05-16 11:30:00,
2013-05-16 07:36:00,66.6,64.0,30.10,SE,128,0.0,0.0,91,0.00,,,0.00,weatherlink.com 1.10,2013-05-16 11:36:00,
2013-05-16 07:45:00,67.3,64.3,30.10,ESE,112,0.0,0.0,90,0.00,,,0.00,VWS V14.01,2013-05-16 11:45:00,
2013-05-16 07:51:00,67.7,65.0,30.11,SE,128,0.0,1.0,90,0.00,,,0.00,weatherlink.com 1.10,2013-05-16 11:51:00,
2013-05-16 08:00:00,68.4,64.4,30.11,SE,135,0.0,2.0,87,0.00,,,0.00,VWS V14.01,2013-05-16 12:00:00,
2013-05-16 08:06:00,68.7,65.0,30.11,East,91,0.0,3.0,87,0.00,,,0.00,weatherlink.com 1.10,2013-05-16 12:06:00,
2013-05-16 08:15:00,69.4,65.0,30.12,SW,225,1.0,4.0,86,0.00,,,0.00,VWS V14.01,2013-05-16 12:15:00,
2013-05-16 08:21:00,69.7,65.0,30.12,SSW,209,2.0,4.0,85,0.00,,,0.00,weatherlink.com 1.10,2013-05-16 12:21:00,
2013-05-16 08:30:00,70.3,65.2,30.12,SSW,202,1.0,3.0,84,0.00,,,0.00,VWS V14.01,2013-05-16 12:30:00,
2013-05-16 08:36:00,70.6,65.0,30.12,SW,228,3.0,5.0,83,0.00,,,0.00,weatherlink.com 1.10,2013-05-16 12:36:00,
2013-05-16 08:45:00,71.3,65.5,30.13,SW,225,1.0,5.0,82,0.00,,,0.00,VWS V14.01,2013-05-16 12:45:00,
2013-05-16 08:51:00,71.9,65.0,30.13,SW,226,1.0,4.0,80,0.00,,,0.00,weatherlink.com 1.10,2013-05-16 12:51:00,
2013-05-16 09:00:00,72.2,65.3,30.13,SW,225,2.0,6.0,79,0.00,,,0.00,VWS V14.01,2013-05-16 13:00:00,
2013-05-16 09:06:00,72.8,66.0,30.13,SW,232,2.0,4.0,79,0.00,,,0.00,weatherlink.com 1.10,2013-05-16 13:06:00,
2013-05-16 09:15:00,73.2,65.9,30.13,SSW,202,1.0,6.0,78,0.00,,,0.00,VWS V14.01,2013-05-16 13:15:00,
2013-05-16 09:22:00,73.9,66.0,30.13,SE,124,1.0,5.0,76,0.00,,,0.00,weatherlink.com 1.10,2013-05-16 13:22:00,
2013-05-16 09:30:00,74.4,66.0,30.13,SE,135,2.0,5.0,75,0.00,,,0.00,VWS V14.01,2013-05-16 13:30:00,
2013-05-16 09:37:00,74.8,66.0,30.13,SSW,199,0.0,5.0,73,0.00,,,0.00,weatherlink.com 1.10,2013-05-16 13:37:00,
2013-05-16 09:45:00,75.1,65.5,30.13,SE,135,2.0,9.0,72,0.00,,,0.00,VWS V14.01,2013-05-16 13:45:00,
2013-05-16 09:52:00,75.8,66.0,30.13,SE,137,1.0,7.0,71,0.00,,,0.00,weatherlink.com 1.10,2013-05-16 13:52:00,
2013-05-16 10:00:00,76.8,65.4,30.13,SE,135,1.0,6.0,68,0.00,,,0.00,VWS V14.01,2013-05-16 14:00:00,
2013-05-16 10:07:00,77.0,66.0,30.13,SE,142,1.0,5.0,69,0.00,,,0.00,weatherlink.com 1.10,2013-05-16 14:07:00,
2013-05-16 10:15:00,77.1,65.3,30.14,SW,225,2.0,6.0,67,0.00,,,0.00,VWS V14.01,2013-05-16 14:15:00,
2013-05-16 10:22:00,76.7,65.0,30.14,SW,228,4.0,5.0,68,0.00,,,0.00,weatherlink.com 1.10,2013-05-16 14:22:00,
2013-05-16 10:30:00,77.1,65.7,30.14,SSW,202,2.0,6.0,68,0.00,,,0.00,VWS V14.01,2013-05-16 14:30:00,
2013-05-16 10:37:00,77.5,66.0,30.14,SSW,204,4.0,6.0,67,0.00,,,0.00,weatherlink.com 1.10,2013-05-16 14:37:00,
2013-05-16 10:45:00,77.5,65.7,30.14,SW,225,2.0,6.0,67,0.00,,,0.00,VWS V14.01,2013-05-16 14:45:00,
2013-05-16 10:52:00,77.7,65.0,30.14,SSE,153,2.0,4.0,66,0.00,,,0.00,weatherlink.com 1.10,2013-05-16 14:52:00,
2013-05-16 11:00:00,78.3,66.0,30.14,SSE,158,2.0,9.0,66,0.00,,,0.00,VWS V14.01,2013-05-16 15:00:00,
2013-05-16 11:07:00,78.6,65.0,30.14,ESE,116,4.0,8.0,64,0.00,,,0.00,weatherlink.com 1.10,2013-05-16 15:07:00,
2013-05-16 11:15:00,77.9,65.2,30.14,SE,135,2.0,8.0,65,0.00,,,0.00,VWS V14.01,2013-05-16 15:15:00,
2013-05-16 11:22:00,77.9,66.0,30.15,SE,130,2.0,5.0,66,0.00,,,0.00,weatherlink.com 1.10,2013-05-16 15:22:00,
2013-05-16 11:30:00,78.4,65.7,30.15,SE,135,2.0,6.0,65,0.00,,,0.00,VWS V14.01,2013-05-16 15:30:00,
2013-05-16 11:37:00,78.8,66.0,30.14,SSW,199,3.0,5.0,64,0.00,,,0.00,weatherlink.com 1.10,2013-05-16 15:37:00,
2013-05-16 11:45:00,79.8,66.1,30.14,SE,135,1.0,5.0,63,0.00,,,0.00,VWS V14.01,2013-05-16 15:45:00,
2013-05-16 11:52:00,80.0,65.0,30.14,SE,131,3.0,7.0,61,0.00,,,0.00,weatherlink.com 1.10,2013-05-16 15:52:00,
2013-05-16 12:00:00,79.9,66.2,30.14,SE,135,2.0,7.0,63,0.00,,,0.00,VWS V14.01,2013-05-16 16:00:00,
2013-05-16 12:07:00,80.4,66.0,30.14,SW,223,0.0,5.0,61,0.00,,,0.00,weatherlink.com 1.10,2013-05-16 16:07:00,
2013-05-16 12:15:00,80.8,66.1,30.13,SSW,202,2.0,8.0,61,0.00,,,0.00,VWS V14.01,2013-05-16 16:15:00,
2013-05-16 12:22:00,80.2,64.0,30.13,SW,216,0.0,6.0,59,0.00,,,0.00,weatherlink.com 1.10,2013-05-16 16:22:00,
2013-05-16 12:30:00,80.9,63.8,30.13,SE,135,2.0,6.0,56,0.00,,,0.00,VWS V14.01,2013-05-16 16:30:00,
2013-05-16 12:37:00,81.1,64.0,30.12,South,190,0.0,7.0,56,0.00,,,0.00,weatherlink.com 1.10,2013-05-16 16:37:00,
2013-05-16 12:45:00,81.2,63.5,30.12,SE,135,3.0,7.0,55,0.00,,,0.00,VWS V14.01,2013-05-16 16:45:00,
2013-05-16 12:52:00,80.4,63.0,30.12,South,190,1.0,7.0,56,0.00,,,0.00,weatherlink.com 1.10,2013-05-16 16:52:00,
2013-05-16 13:00:00,81.5,64.3,30.12,SE,135,2.0,7.0,56,0.00,,,0.00,VWS V14.01,2013-05-16 17:00:00,
2013-05-16 13:07:00,82.0,63.0,30.12,SW,218,4.0,7.0,53,0.00,,,0.00,weatherlink.com 1.10,2013-05-16 17:07:00,
2013-05-16 13:15:00,81.7,62.9,30.11,SSW,202,2.0,8.0,53,0.00,,,0.00,VWS V14.01,2013-05-16 17:15:00,
2013-05-16 13:22:00,81.7,64.0,30.11,SE,143,2.0,8.0,55,0.00,,,0.00,weatherlink.com 1.10,2013-05-16 17:22:00,
2013-05-16 13:30:00,81.8,63.5,30.10,SSW,202,2.0,8.0,54,0.00,,,0.00,VWS V14.01,2013-05-16 17:30:00,
2013-05-16 13:37:00,82.4,64.0,30.10,SE,131,3.0,5.0,54,0.00,,,0.00,weatherlink.com 1.10,2013-05-16 17:37:00,
2013-05-16 13:45:00,82.4,63.6,30.10,SSW,202,2.0,6.0,53,0.00,,,0.00,VWS V14.01,2013-05-16 17:45:00,
2013-05-16 13:52:00,82.2,63.0,30.10,SSE,163,3.0,7.0,52,0.00,,,0.00,weatherlink.com 1.10,2013-05-16 17:52:00,
2013-05-16 14:00:00,83.0,63.6,30.10,SW,225,3.0,7.0,52,0.00,,,0.00,VWS V14.01,2013-05-16 18:00:00,
2013-05-16 14:07:00,82.8,63.0,30.10,SW,217,3.0,8.0,51,0.00,,,0.00,weatherlink.com 1.10,2013-05-16 18:07:00,
2013-05-16 14:15:00,83.2,63.8,30.09,SSW,202,3.0,8.0,52,0.00,,,0.00,VWS V14.01,2013-05-16 18:15:00,
2013-05-16 14:22:00,83.2,64.0,30.09,SE,129,3.0,6.0,52,0.00,,,0.00,weatherlink.com 1.10,2013-05-16 18:22:00,
2013-05-16 14:30:00,82.8,63.9,30.08,SSW,202,2.0,7.0,53,0.00,,,0.00,VWS V14.01,2013-05-16 18:30:00,
2013-05-16 14:37:00,83.1,63.0,30.08,ESE,105,4.0,9.0,51,0.00,,,0.00,weatherlink.com 1.10,2013-05-16 18:37:00,
2013-05-16 14:45:00,83.4,64.0,30.08,South,180,3.0,9.0,52,0.00,,,0.00,VWS V14.01,2013-05-16 18:45:00,
2013-05-16 14:52:00,83.7,64.0,30.07,SSW,205,8.0,8.0,52,0.00,,,0.00,weatherlink.com 1.10,2013-05-16 18:52:00,
2013-05-16 15:00:00,83.8,63.8,30.07,SSW,202,3.0,9.0,51,0.00,,,0.00,VWS V14.01,2013-05-16 19:00:00,
2013-05-16 15:07:00,84.4,63.0,30.07,ESE,118,2.0,9.0,49,0.00,,,0.00,weatherlink.com 1.10,2013-05-16 19:07:00,
2013-05-16 15:15:00,83.6,63.0,30.07,SW,225,3.0,9.0,50,0.00,,,0.00,VWS V14.01,2013-05-16 19:15:00,
2013-05-16 15:22:00,83.6,63.0,30.06,SSE,153,0.0,6.0,50,0.00,,,0.00,weatherlink.com 1.10,2013-05-16 19:22:00,
2013-05-16 15:30:00,83.9,62.7,30.06,SE,135,2.0,7.0,49,0.00,,,0.00,VWS V14.01,2013-05-16 19:30:00,
2013-05-16 15:37:00,84.3,63.0,30.05,SE,128,0.0,8.0,49,0.00,,,0.00,weatherlink.com 1.10,2013-05-16 19:37:00,
2013-05-16 15:45:00,85.2,63.3,30.05,SE,135,2.0,8.0,48,0.00,,,0.00,VWS V14.01,2013-05-16 19:45:00,
2013-05-16 15:52:00,85.0,63.0,30.05,East,101,0.0,4.0,47,0.00,,,0.00,weatherlink.com 1.10,2013-05-16 19:52:00,
2013-05-16 16:00:00,85.6,63.1,30.04,SSW,202,2.0,8.0,47,0.00,,,0.00,VWS V14.01,2013-05-16 20:00:00,
2013-05-16 16:08:00,85.5,63.0,30.04,West,260,2.0,10.0,47,0.00,,,0.00,weatherlink.com 1.10,2013-05-16 20:08:00,
2013-05-16 16:15:00,85.5,63.0,30.04,South,180,3.0,10.0,47,0.00,,,0.00,VWS V14.01,2013-05-16 20:15:00,
2013-05-16 16:23:00,85.6,62.0,30.04,SSW,209,1.0,7.0,46,0.00,,,0.00,weatherlink.com 1.10,2013-05-16 20:23:00,
2013-05-16 16:30:00,86.3,61.8,30.03,SSW,202,2.0,7.0,44,0.00,,,0.00,VWS V14.01,2013-05-16 20:30:00,
2013-05-16 16:38:00,86.7,64.0,30.03,SSW,206,2.0,6.0,47,0.00,,,0.00,weatherlink.com 1.10,2013-05-16 20:38:00,
2013-05-16 16:45:00,86.8,62.9,30.03,SSW,202,2.0,7.0,45,0.00,,,0.00,VWS V14.01,2013-05-16 20:45:00,
2013-05-16 16:53:00,86.3,64.0,30.03,SW,224,1.0,8.0,47,0.00,,,0.00,weatherlink.com 1.10,2013-05-16 20:53:00,
2013-05-16 17:00:00,85.7,62.6,30.02,SW,225,3.0,8.0,46,0.00,,,0.00,VWS V14.01,2013-05-16 21:00:00,
2013-05-16 17:08:00,85.4,63.0,30.03,ENE,66,1.0,5.0,47,0.00,,,0.00,weatherlink.com 1.10,2013-05-16 21:08:00,
2013-05-16 17:15:00,85.2,62.7,30.02,ENE,68,1.0,5.0,47,0.00,,,0.00,VWS V14.01,2013-05-16 21:15:00,
2013-05-16 17:23:00,85.1,61.0,30.02,East,101,2.0,7.0,45,0.00,,,0.00,weatherlink.com 1.10,2013-05-16 21:23:00,
2013-05-16 17:30:00,84.8,60.5,30.02,ESE,112,2.0,8.0,44,0.00,,,0.00,VWS V14.01,2013-05-16 21:30:00,
2013-05-16 17:38:00,84.9,61.0,30.02,ENE,58,2.0,8.0,45,0.00,,,0.00,weatherlink.com 1.10,2013-05-16 21:38:00,
2013-05-16 17:45:00,85.2,62.7,30.02,ENE,68,2.0,8.0,47,0.00,,,0.00,VWS V14.01,2013-05-16 21:45:00,
2013-05-16 17:53:00,85.1,61.0,30.02,East,86,0.0,5.0,44,0.00,,,0.00,weatherlink.com 1.10,2013-05-16 21:53:00,
2013-05-16 18:00:00,84.9,59.9,30.02,ESE,112,2.0,6.0,43,0.00,,,0.00,VWS V14.01,2013-05-16 22:00:00,
2013-05-16 18:08:00,84.4,59.0,30.02,NE,41,2.0,6.0,42,0.00,,,0.00,weatherlink.com 1.10,2013-05-16 22:08:00,
2013-05-16 18:15:00,84.0,60.4,30.02,ENE,68,2.0,6.0,45,0.00,,,0.00,VWS V14.01,2013-05-16 22:15:00,
2013-05-16 18:23:00,83.9,61.0,30.02,ESE,113,0.0,5.0,46,0.00,,,0.00,weatherlink.com 1.10,2013-05-16 22:23:00,
2013-05-16 18:30:00,83.7,60.1,30.01,ESE,112,1.0,4.0,45,0.00,,,0.00,VWS V14.01,2013-05-16 22:30:00,
2013-05-16 18:38:00,83.6,59.0,30.01,ESE,118,1.0,6.0,44,0.00,,,0.00,weatherlink.com 1.10,2013-05-16 22:38:00,
2013-05-16 18:45:00,83.5,59.9,30.01,ESE,112,2.0,7.0,45,0.00,,,0.00,VWS V14.01,2013-05-16 22:45:00,
2013-05-16 18:53:00,82.9,64.0,30.02,ENE,57,3.0,12.0,53,0.00,,,0.00,weatherlink.com 1.10,2013-05-16 22:53:00,
2013-05-16 19:00:00,82.0,64.8,30.02,East,90,3.0,12.0,56,0.00,,,0.00,VWS V14.01,2013-05-16 23:00:00,
2013-05-16 19:08:00,81.4,65.0,30.02,ENE,70,1.0,9.0,57,0.00,,,0.00,weatherlink.com 1.10,2013-05-16 23:08:00,
2013-05-16 19:15:00,80.8,64.7,30.02,East,90,3.0,9.0,58,0.00,,,0.00,VWS V14.01,2013-05-16 23:15:00,
2013-05-16 19:23:00,80.5,64.0,30.02,ESE,105,5.0,8.0,57,0.00,,,0.00,weatherlink.com 1.10,2013-05-16 23:23:00,
2013-05-16 19:30:00,79.9,62.3,30.02,ESE,112,4.0,11.0,55,0.00,,,0.00,VWS V14.01,2013-05-16 23:30:00,
2013-05-16 19:38:00,79.4,62.0,30.02,ESE,113,5.0,9.0,56,0.00,,,0.00,weatherlink.com 1.10,2013-05-16 23:38:00,
2013-05-16 19:45:00,79.0,62.0,30.02,ESE,112,3.0,10.0,56,0.00,,,0.00,VWS V14.01,2013-05-16 23:45:00,
2013-05-16 19:53:00,78.6,61.0,30.02,ESE,105,2.0,10.0,55,0.00,,,0.00,weatherlink.com 1.10,2013-05-16 23:53:00,
2013-05-16 20:00:00,78.4,61.4,30.03,ENE,68,3.0,10.0,56,0.00,,,0.00,VWS V14.01,2013-05-17 00:00:00,
2013-05-16 20:08:00,78.1,61.0,30.03,East,86,2.0,9.0,56,0.00,,,0.00,weatherlink.com 1.10,2013-05-17 00:08:00,
2013-05-16 20:15:00,78.0,61.0,30.03,East,90,2.0,9.0,56,0.00,,,0.00,VWS V14.01,2013-05-17 00:15:00,
2013-05-16 20:23:00,77.8,61.0,30.03,East,91,2.0,5.0,57,0.00,,,0.00,weatherlink.com 1.10,2013-05-17 00:23:00,
2013-05-16 20:30:00,77.4,61.0,30.03,ESE,112,2.0,7.0,57,0.00,,,0.00,VWS V14.01,2013-05-17 00:30:00,
2013-05-16 20:38:00,77.1,61.0,30.04,SE,130,4.0,9.0,57,0.00,,,0.00,weatherlink.com 1.10,2013-05-17 00:38:00,
2013-05-16 20:45:00,76.9,61.0,30.04,ESE,112,3.0,9.0,58,0.00,,,0.00,VWS V14.01,2013-05-17 00:45:00,
2013-05-16 20:53:00,76.7,61.0,30.04,East,101,0.0,6.0,58,0.00,,,0.00,weatherlink.com 1.10,2013-05-17 00:53:00,
2013-05-16 21:00:00,76.5,61.1,30.05,ESE,112,1.0,6.0,59,0.00,,,0.00,VWS V14.01,2013-05-17 01:00:00,
2013-05-16 21:08:00,76.2,61.0,30.05,ESE,105,0.0,5.0,59,0.00,,,0.00,weatherlink.com 1.10,2013-05-17 01:08:00,
2013-05-16 21:15:00,75.8,60.9,30.04,ESE,112,2.0,5.0,60,0.00,,,0.00,VWS V14.01,2013-05-17 01:15:00,
2013-05-16 21:23:00,75.6,61.0,30.05,ENE,71,1.0,6.0,60,0.00,,,0.00,weatherlink.com 1.10,2013-05-17 01:23:00,
2013-05-16 21:30:00,75.2,60.8,30.05,ESE,112,2.0,6.0,61,0.00,,,0.00,VWS V14.01,2013-05-17 01:30:00,
2013-05-16 21:38:00,75.0,61.0,30.05,ESE,111,3.0,7.0,62,0.00,,,0.00,weatherlink.com 1.10,2013-05-17 01:38:00,
2013-05-16 21:45:00,74.9,61.0,30.05,ESE,112,2.0,7.0,62,0.00,,,0.00,VWS V14.01,2013-05-17 01:45:00,
2013-05-16 21:53:00,74.8,61.0,30.06,SE,130,0.0,6.0,63,0.00,,,0.00,weatherlink.com 1.10,2013-05-17 01:53:00,
2013-05-16 22:00:00,74.5,61.5,30.06,ESE,112,1.0,6.0,64,0.00,,,0.00,VWS V14.01,2013-05-17 02:00:00,
2013-05-16 22:08:00,74.2,62.0,30.07,ESE,115,6.0,6.0,65,0.00,,,0.00,weatherlink.com 1.10,2013-05-17 02:08:00,
2013-05-16 22:15:00,73.9,61.8,30.07,ESE,112,1.0,6.0,66,0.00,,,0.00,VWS V14.01,2013-05-17 02:15:00,
2013-05-16 22:23:00,73.5,62.0,30.07,SE,126,2.0,3.0,67,0.00,,,0.00,weatherlink.com 1.10,2013-05-17 02:23:00,
2013-05-16 22:30:00,73.4,62.6,30.07,ESE,112,1.0,5.0,69,0.00,,,0.00,VWS V14.01,2013-05-17 02:30:00,
2013-05-16 22:38:00,73.4,63.0,30.07,SE,130,2.0,5.0,70,0.00,,,0.00,weatherlink.com 1.10,2013-05-17 02:38:00,
2013-05-16 22:45:00,73.4,63.0,30.08,ESE,112,1.0,5.0,70,0.00,,,0.00,VWS V14.01,2013-05-17 02:45:00,
2013-05-16 22:53:00,73.2,63.0,30.08,ESE,111,3.0,5.0,71,0.00,,,0.00,weatherlink.com 1.10,2013-05-17 02:53:00,
2013-05-16 23:00:00,73.0,63.5,30.09,ESE,112,1.0,6.0,72,0.00,,,0.00,VWS V14.01,2013-05-17 03:00:00,
2013-05-16 23:08:00,73.0,64.0,30.08,SE,134,2.0,6.0,73,0.00,,,0.00,weatherlink.com 1.10,2013-05-17 03:08:00,
2013-05-16 23:15:00,73.1,64.3,30.08,SE,135,1.0,4.0,74,0.00,,,0.00,VWS V14.01,2013-05-17 03:15:00,
2013-05-16 23:23:00,73.1,64.0,30.08,SE,129,2.0,5.0,74,0.00,,,0.00,weatherlink.com 1.10,2013-05-17 03:23:00,
2013-05-16 23:30:00,73.0,64.6,30.08,ESE,112,2.0,5.0,75,0.00,,,0.00,VWS V14.01,2013-05-17 03:30:00,
2013-05-16 23:38:00,73.0,65.0,30.07,SE,124,2.0,6.0,75,0.00,,,0.00,weatherlink.com 1.10,2013-05-17 03:38:00,
2013-05-16 23:45:00,72.9,64.9,30.08,SE,135,2.0,6.0,76,0.00,,,0.00,VWS V14.01,2013-05-17 03:45:00,
2013-05-16 23:53:00,72.8,65.0,30.08,ESE,123,6.0,6.0,76,0.00,,,0.00,weatherlink.com 1.10,2013-05-17 03:53:00,